Flag for Russia Weather past 2 weeks in Bryansk, Russia

Now
32 °F

Light snow. Ice fog.


Feels Like: 25 °F
Forecast: 30 / 36 °F
Wind: 8 mph from South

Location: Brjansk

Current Time: Dec 23, 2014 at 5:03:20 AM

Latest Report: Dec 23, 2014 at 4:00 AM


Visibility: 2 mi

Pressure: 29.27 "Hg

Humidity: 100%

Dew point: 32 °F

Location of BryanskLocation

Historic Weather in Bryansk — Graph

°F

Bryansk temperature yesterday

Maximum temperature yesterday: 32 °F (at 7:00 PM)
Minimum temperature yesterday: 23 °F (at 9:00 AM)
Average temperature yesterday: 30 °F

Past Weeks' High & Low Weather Summary

 TemperatureHumidityPressure
High45 °F (Dec 20, 11:00 AM)100% (Dec 8, 6:00 PM)30.33 "Hg (Dec 8, 6:00 PM)
Low19 °F (Dec 8, 9:00 AM)81% (Dec 13, 2:00 PM)29.27 "Hg (Dec 23, 4:00 AM)
Average32 °F97%29.93 "Hg
* Reported Dec 8 9:00 AM — Dec 23 4:00 AM, Bryansk, Weather by CustomWeather, © 2014

Note: Actual official high and low records may vary slightly from our data, if they occured in-between our weather recording intervals... More about our weather records

Advertising

Bryansk weather history for previous 24 hours

 ConditionsComfort  
Time TempWeatherWind HumidityBarometerVisibility
4:00 AM
Dec 23
32 °FLight snow. Ice fog.8 mph100%29.27 "Hg1 mi
3:00 AM32 °FLight snow. Ice fog.8 mph100%29.30 "Hg2 mi
2:00 AM32 °FLight snow. Ice fog.10 mph100%29.33 "Hg2 mi
1:00 AM32 °FLight snow. Ice fog.10 mph100%29.36 "Hg2 mi
12:00 AM32 °FLight snow. Ice fog.13 mph100%29.39 "Hg2 mi
11:00 PM
Dec 22
32 °FLight snow. Ice fog.10 mph100%29.39 "Hg1 mi
10:00 PM32 °FLight snow. Ice fog.10 mph100%29.42 "Hg1 mi
9:00 PM32 °FLight snow. Ice fog.10 mph100%29.45 "Hg2 mi
8:00 PM32 °FLow clouds.10 mph100%29.47 "Hg4 mi
7:00 PM32 °FLight snow. Ice fog.8 mph93%29.50 "Hg2 mi
6:00 PM30 °FLight snow. Ice fog.8 mph100%29.53 "Hg1 mi
5:00 PM30 °FLight snow. Ice fog.8 mph100%29.56 "Hg1 mi
4:00 PM30 °FLight snow. Ice fog.8 mph100%29.59 "Hg2 mi
3:00 PM30 °FMostly cloudy.6 mph93%29.62 "HgN/A
2:00 PM30 °FOvercast.8 mph93%29.62 "HgN/A
1:00 PM30 °FPartly sunny.6 mph86%29.65 "HgN/A
12:00 PM28 °FMostly cloudy.8 mph93%29.68 "HgN/A
11:00 AM28 °FPartly sunny.6 mph86%29.68 "HgN/A
10:00 AM27 °FPartly sunny.8 mph93%29.68 "HgN/A
9:00 AM23 °FPassing clouds.6 mph93%29.68 "HgN/A
Weather by CustomWeather, © 2014

See weather overviewHow to use our weather pages